Morris, MN

10:34 PM CDT on May 27, 2018 (GMT -0500)
Morris Municipal

Weather History for KMOX - October, 2012

Change the Weather History Date:

Monday, October 15, 2012

  Actual Average Record
Temperature  
Mean Temperature 46 °F -  
Max Temperature 66 °F 56 °F 71 °F (1996)
Min Temperature 26 °F 35 °F 24 °F (2006)
Degree Days  
Heating Degree Days 19    
Moisture  
Dew Point 34 °F    
Average Humidity 59    
Maximum Humidity 93    
Minimum Humidity 35    
Precipitation  
Precipitation 0.00 in - - ()
Sea Level Pressure  
Sea Level Pressure 29.81 in    
Wind  
Wind Speed 8 mph (SSE)    
Max Wind Speed 22 mph    
Max Gust Speed 26 mph    
Visibility 10 miles    
Events      
Averages and records for this station are not official NWS values.
T = Trace of Precipitation, MM = Missing Value Source: NWS Daily Summary

Daily Weather History Graph

Daily Weather History Graph

Search for Another Location

Airport or City:

Astronomy

Oct. 15, 2012 Rise Set
Actual Time 7:40 AM CDT 6:37 PM CDT
Civil Twilight 7:10 AM CDT 7:07 PM CDT
Nautical Twilight 6:36 AM CDT 7:41 PM CDT
Astronomical Twilight 6:02 AM CDT 8:15 PM CDT
Moon 7:55 AM CDT (10/15) 6:33 PM CDT (10/15)
Length of Visible Light 11h 56m
Length of Day
10h 56m
New Moon, 0% of the Moon is Illuminated
Oct 15
New Moon
Oct 21
First Quarter
Oct 29
Full
Nov 6
Last Quarter
Nov 13
New

Hourly Weather History & Observations

Time (CDT) Temp. Windchill Dew Point Humidity Pressure Visibility Wind Dir Wind Speed Gust Speed Precip Events Conditions
12:10 AM 35.6 °F 30.7 °F 28.4 °F 75% 29.93 in 10.0 mi WNW 5.8 mph - N/A   Clear
12:50 AM 33.8 °F 28.6 °F 28.4 °F 81% 29.93 in 10.0 mi WNW 5.8 mph - N/A   Clear
1:10 AM 35.6 °F 30.7 °F 30.2 °F 81% 29.93 in 10.0 mi West 5.8 mph - N/A   Clear
1:30 AM 35.6 °F 31.7 °F 30.2 °F 81% 29.93 in 10.0 mi WNW 4.6 mph - N/A   Clear
1:50 AM 33.8 °F 28.6 °F 28.4 °F 81% 29.93 in 10.0 mi West 5.8 mph - N/A   Clear
2:10 AM 33.8 °F 28.6 °F 28.4 °F 81% 29.93 in 10.0 mi WNW 5.8 mph - N/A   Clear
2:50 AM 32.0 °F 28.7 °F 28.4 °F 87% 29.92 in 10.0 mi WNW 3.5 mph - N/A   Clear
3:10 AM 30.2 °F - 26.6 °F 86% 29.92 in 10.0 mi Calm Calm - N/A   Clear
3:30 AM 30.2 °F - 26.6 °F 86% 29.92 in 10.0 mi Calm Calm - N/A   Clear
3:50 AM 28.4 °F 24.6 °F 24.8 °F 86% 29.91 in 10.0 mi East 3.5 mph - N/A   Clear
4:10 AM 30.2 °F - 24.8 °F 80% 29.91 in 10.0 mi Calm Calm - N/A   Clear
4:50 AM 28.4 °F - 26.6 °F 93% 29.91 in 10.0 mi Calm Calm - N/A   Clear
5:10 AM 30.2 °F 22.6 °F 26.6 °F 86% 29.91 in 10.0 mi WSW 8.1 mph - N/A   Clear
5:30 AM 32.0 °F 26.4 °F 28.4 °F 87% 29.92 in 10.0 mi WSW 5.8 mph - N/A   Clear
5:50 AM 30.2 °F - 28.4 °F 93% 29.91 in 10.0 mi Calm Calm - N/A   Clear
6:10 AM 32.0 °F - 28.4 °F 87% 29.91 in 10.0 mi Calm Calm - N/A   Clear
6:30 AM 28.4 °F 24.6 °F 24.8 °F 86% 29.91 in 10.0 mi SSE 3.5 mph - N/A   Clear
6:50 AM 28.4 °F 24.6 °F 24.8 °F 86% 29.91 in 10.0 mi SSE 3.5 mph - N/A   Clear
7:10 AM 28.4 °F 23.3 °F 24.8 °F 86% 29.90 in 10.0 mi SE 4.6 mph - N/A   Clear
7:30 AM 26.6 °F 20.0 °F 23.0 °F 86% 29.90 in 10.0 mi SE 5.8 mph - N/A   Clear
7:50 AM 28.4 °F 21.2 °F 24.8 °F 86% 29.91 in 10.0 mi ESE 6.9 mph - N/A   Clear
8:10 AM 28.4 °F 22.2 °F 24.8 °F 86% 29.92 in 10.0 mi SE 5.8 mph - N/A   Clear
8:30 AM 30.2 °F 26.7 °F 26.6 °F 86% 29.92 in 10.0 mi SSE 3.5 mph - N/A   Clear
8:50 AM 35.6 °F 30.7 °F 28.4 °F 75% 29.92 in 10.0 mi SSE 5.8 mph - N/A   Clear
9:10 AM 37.4 °F 32.1 °F 30.2 °F 75% 29.92 in 10.0 mi SE 6.9 mph - N/A   Clear
9:30 AM 42.8 °F 38.6 °F 33.8 °F 70% 29.91 in 10.0 mi SSE 6.9 mph - N/A   Clear
9:50 AM 44.6 °F 41.4 °F 35.6 °F 71% 29.91 in 10.0 mi South 5.8 mph - N/A   Clear
10:10 AM 48.2 °F - 35.6 °F 62% 29.91 in 10.0 mi South 8.1 mph - N/A   Clear
10:30 AM 51.8 °F - 37.4 °F 58% 29.91 in 10.0 mi SSE 9.2 mph - N/A   Clear
10:50 AM 51.8 °F - 37.4 °F 58% 29.91 in 10.0 mi South 11.5 mph - N/A   Clear
11:10 AM 53.6 °F - 37.4 °F 54% 29.90 in 10.0 mi SSE 12.7 mph - N/A   Clear
11:50 AM 55.4 °F - 37.4 °F 51% 29.89 in 10.0 mi SSE 13.8 mph - N/A   Scattered Clouds
12:10 PM 55.4 °F - 37.4 °F 51% 29.88 in 10.0 mi SSE 13.8 mph - N/A   Clear
12:30 PM 57.2 °F - 37.4 °F 48% 29.86 in 10.0 mi SSE 17.3 mph - N/A   Clear
1:10 PM 62.6 °F - 37.4 °F 39% 29.84 in 10.0 mi South 16.1 mph - N/A   Scattered Clouds
1:30 PM 60.8 °F - 37.4 °F 42% 29.82 in 10.0 mi SSE 16.1 mph - N/A   Scattered Clouds
1:50 PM 62.6 °F - 37.4 °F 39% 29.82 in 10.0 mi South 17.3 mph - N/A   Scattered Clouds
2:10 PM 62.6 °F - 37.4 °F 39% 29.81 in 10.0 mi South 17.3 mph - N/A   Clear
2:30 PM 64.4 °F - 37.4 °F 37% 29.79 in 10.0 mi SSE 18.4 mph 23.0 mph N/A   Clear
2:50 PM 64.4 °F - 37.4 °F 37% 29.78 in 10.0 mi SSE 17.3 mph - N/A   Clear
3:10 PM 64.4 °F - 37.4 °F 37% 29.77 in 10.0 mi SSE 16.1 mph - N/A   Clear
3:30 PM 66.2 °F - 37.4 °F 35% 29.76 in 10.0 mi South 16.1 mph - N/A   Clear
3:50 PM 66.2 °F - 37.4 °F 35% 29.75 in 10.0 mi South 20.7 mph - N/A   Clear
4:10 PM 66.2 °F - 37.4 °F 35% 29.74 in 10.0 mi South 17.3 mph 23.0 mph N/A   Clear
4:30 PM 66.2 °F - 37.4 °F 35% 29.73 in 10.0 mi South 21.9 mph 25.3 mph N/A   Clear
4:50 PM 66.2 °F - 37.4 °F 35% 29.73 in 10.0 mi South 20.7 mph 25.3 mph N/A   Clear
5:10 PM 66.2 °F - 37.4 °F 35% 29.72 in 10.0 mi South 21.9 mph 26.5 mph N/A   Clear
5:30 PM 66.2 °F - 37.4 °F 35% 29.71 in 10.0 mi SSE 19.6 mph - N/A   Clear
5:50 PM 64.4 °F - 37.4 °F 37% 29.70 in 10.0 mi SSE 15.0 mph - N/A   Clear
6:10 PM 64.4 °F - 37.4 °F 37% 29.70 in 10.0 mi SSE 16.1 mph - N/A   Clear
6:30 PM 62.6 °F - 37.4 °F 39% 29.69 in 10.0 mi SSE 13.8 mph - N/A   Clear
6:50 PM 60.8 °F - 37.4 °F 42% 29.68 in 10.0 mi SSE 13.8 mph - N/A   Clear
7:10 PM 60.8 °F - 37.4 °F 42% 29.68 in 10.0 mi SSE 12.7 mph - N/A   Clear
7:30 PM 59.0 °F - 37.4 °F 45% 29.68 in 10.0 mi SSE 11.5 mph - N/A   Clear
7:50 PM 59.0 °F - 37.4 °F 45% 29.67 in 10.0 mi SE 11.5 mph - N/A   Clear
8:10 PM 59.0 °F - 37.4 °F 45% 29.67 in 10.0 mi SSE 11.5 mph - N/A   Clear
8:30 PM 59.0 °F - 37.4 °F 45% 29.66 in 10.0 mi SSE 12.7 mph - N/A   Clear
8:50 PM 60.8 °F - 37.4 °F 42% 29.65 in 10.0 mi SSE 13.8 mph - N/A   Clear
9:10 PM 60.8 °F - 37.4 °F 42% 29.65 in 10.0 mi SSE 16.1 mph - N/A   Clear
9:30 PM 59.0 °F - 37.4 °F 45% 29.64 in 10.0 mi SSE 16.1 mph - N/A   Scattered Clouds
9:50 PM 59.0 °F - 37.4 °F 45% 29.64 in 10.0 mi SSE 17.3 mph - N/A   Scattered Clouds
10:10 PM 59.0 °F - 39.2 °F 48% 29.63 in 10.0 mi SSE 16.1 mph - N/A   Mostly Cloudy
10:30 PM 59.0 °F - 39.2 °F 48% 29.62 in 10.0 mi SSE 13.8 mph - N/A   Overcast
10:50 PM 59.0 °F - 39.2 °F 48% 29.62 in 10.0 mi SSE 11.5 mph - N/A   Overcast
11:10 PM 57.2 °F - 39.2 °F 51% 29.61 in 10.0 mi SSE 10.4 mph - N/A   Overcast
11:30 PM 59.0 °F - 39.2 °F 48% 29.61 in 10.0 mi SSE 12.7 mph - N/A   Overcast
11:50 PM 59.0 °F - 39.2 °F 48% 29.61 in 10.0 mi SSE 10.4 mph - N/A   Overcast